USA 169 (MILSTAR-2 4)

Last updated on Tue Oct 14 2025 00:02:45 GMT+0000 (Coordinated Universal Time)

1 27711U 03012A 25286.11503288 -.00000205 00000+0 00000+0 0 9991 2 27711 11.9725 31.7894 0094106 7.5240 176.0658 1.00272809 30471
UTC large
Height (km)
Speed (km/s)
/
Latitude / Longitude
Inclination (degrees)
Orbital Period (minutes)
Azimuth
Elevation
Range (km)
Doppler Factor

Next 0 passes for location: London (51.5072 / 0.1276)

Sorry there are no passes over London.